User: anonymous   Login
Location: Unspecified
(0.0000°N, 0.0000°E)
Time: 11:16:54
(UTC+00:00)
Language:

Dynamics Explorer 1 - Orbit

View from above orbital plane
View from above orbital plane
View from above satellite
View from above satellite

Ground track
Ground track

The orbit data is extracted from the following two-line orbital elements,

1 12624U 81070A   18019.81313902 -.00000039 +00000-0 -16136-3 0  9991
2 12624 090.0793 034.0408 6225537 151.8428 264.2994 03.52489628616919
Epoch (UTC): 19 January 2018 19:30:55
Eccentricity: 0.6225537
inclination: 90.0793°
perigee height: 505 km
apogee height: 23213 km
right ascension of ascending node: 34.0408°
argument of perigee: 151.8428°
revolutions per day: 3.52489628
mean anomaly at epoch: 264.2994°
orbit number at epoch: 61691

The dashed part of the orbit path shows where the satellite is in the earth's shadow,  

DLR